DATE/TIME(UTC),Outside Humidity (),Lat. , Long.,Direction / Angle (),Direction / Angle (),Speed (ground - true North),Speed (Apparent),Barometric Pressure (),Outside Temperature ()
Jul-26-2019 00:00:00,,34.3460266,-119.61841159999999,196.29534061182005,11.172677005051053,7.095032397408207,11.488120950323973,1008,16.950000000000045
Jul-26-2019 00:00:15,,34.3458416,-119.6175583,202.391611552012,14.513020950663753,7.989200863930886,10.943844492440604,1008,16.970000000000027
Jul-26-2019 00:00:30,,34.345671599999996,-119.6167033,203.59482292178674,15.727691476341098,7.794816414686824,10.866090712742979,1008,16.99000000000001
Jul-26-2019 00:00:45,,34.345471599999996,-119.6158533,204.89543711673372,14.003088512997321,7.4838012958963285,11.31317494600432,1008,16.980000000000018
Jul-26-2019 00:01:00,,34.3452966,-119.6149983,202.9932172368994,15.085978745794577,7.697624190064795,9.971922246220302,1008,16.980000000000018
Jul-26-2019 00:01:15,,34.34512,-119.6141533,201.6926030419524,7.723471078363497,7.095032397408207,9.291576673866091,1008,16.940000000000055
Jul-26-2019 00:01:30,,34.3449233,-119.6133,202.093673498544,10.192919175377344,7.3866090712742976,10.846652267818575,1008,16.950000000000045
Jul-26-2019 00:01:45,,34.3447166,-119.61243499999999,203.89276097525476,13.945792733484236,7.4838012958963285,11.721382289416848,1008,17.02000000000004
Jul-26-2019 00:02:00,,34.3445266,-119.61158499999999,203.09634964002294,13.074896884885387,7.3866090712742976,10.904967602591794,1008,16.980000000000018
Jul-26-2019 00:02:15,,34.344339999999995,-119.61072999999999,203.692225746959,14.707826601008236,7.1922246220302375,10.477321814254859,1008,16.99000000000001
Jul-26-2019 00:02:30,,34.344153299999995,-119.60987159999999,207.1929978752083,13.281161691132484,7.3866090712742976,11.041036717062635,1008,17.03000000000003
Jul-26-2019 00:02:45,,34.3439166,-119.6090433,209.19262058021485,13.304080002937717,7.1922246220302375,10.613390928725703,1008,16.950000000000045
Jul-26-2019 00:03:00,,34.34366,-119.6082083,204.89543711673372,11.676879864766178,6.9978401727861765,10.866090712742979,1008,16.960000000000036
Jul-26-2019 00:03:15,,34.34341,-119.6073816,207.3935331035041,15.085978745794577,7.3866090712742976,10.224622030237581,1008,17.07000000000005
Jul-26-2019 00:03:30,,34.3431733,-119.60655829999999,214.29194495687918,12.70820389600166,7.892008639308855,10.205183585313176,1008,17.03000000000003
Jul-26-2019 00:03:45,,34.342916599999995,-119.605735,212.19491942670038,15.000035076524956,7.1922246220302375,10.069114470842331,1008,16.950000000000045
Jul-26-2019 00:04:00,,34.342606599999996,-119.60493659999999,214.19454213170698,11.464885480567773,6.39524838012959,10.205183585313176,1008,16.880000000000052
Jul-26-2019 00:04:15,,34.3422883,-119.60414329999999,210.39583194998963,12.851443344784366,6.68682505399568,10.399568034557236,1008,16.930000000000007
Jul-26-2019 00:04:30,,34.3419583,-119.603355,213.49553362164735,15.022953388330185,7.095032397408207,10.535637149028076,1008,16.99000000000001
Jul-26-2019 00:04:45,,34.3416516,-119.602555,216.9963057498967,18.334649444186343,6.9978401727861765,9.699784017278619,1008,17.08000000000004
Jul-26-2019 00:05:00,,34.3413383,-119.60175,210.79117282862987,7.018732990352585,6.29805615550756,10.146868250539956,1008,17.05000000000001
Jul-26-2019 00:05:15,,34.341025,-119.6009533,211.39277851351724,4.2169693721628585,6.181425485961123,11.526997840172786,1008,17.02000000000004
Jul-26-2019 00:05:30,,34.34071,-119.6001416,209.3931558085107,5.67228217179515,5.481641468682505,10.069114470842331,1008,16.970000000000027
Jul-26-2019 00:05:45,,34.3403966,-119.59934,213.09446316505577,10.089786772253797,5.481641468682505,10.982721382289418,1008,16.970000000000027
Jul-26-2019 00:06:00,,34.3401083,-119.5985383,206.59139219032096,5.259752559300957,5.695464362850972,9.855291576673865,1008,17.02000000000004
Jul-26-2019 00:06:15,,34.3397966,-119.59773829999999,208.5910148953275,11.436237590811231,5.792656587473002,10.049676025917925,1008,16.99000000000001
Jul-26-2019 00:06:30,,34.3394733,-119.5969183,213.7934716751154,6.583285066053159,5.481641468682505,11.215982721382291,1008,16.950000000000045
Jul-26-2019 00:06:45,,34.33918,-119.596125,207.3935331035041,9.11002894258009,6.084233261339092,9.855291576673865,1008,16.930000000000007
Jul-26-2019 00:07:00,,34.338879999999996,-119.59534,217.09370857506892,16.66161268240434,6.881209503239741,9.719222462203023,1008,17.000000000000057
Jul-26-2019 00:07:15,,34.338564999999996,-119.59454,208.9920853519191,8.30215845144563,6.084233261339092,11.429805615550757,1008,17.010000000000048
Jul-26-2019 00:07:30,,34.3382516,-119.5937383,204.89543711673372,11.321646031785066,6.39524838012959,10.846652267818575,1008,16.970000000000027
Jul-26-2019 00:07:45,,34.3379283,-119.592935,209.79422626510222,13.77390539494499,6.881209503239741,10.924406047516198,1008,16.980000000000018
Jul-26-2019 00:08:00,,34.33761,-119.59214159999999,206.4939893651487,12.3873475307284,6.58963282937365,10.76889848812095,1008,16.980000000000018
Jul-26-2019 00:08:15,,34.337295,-119.59134159999999,220.6918835284905,19.18835655893127,7.095032397408207,9.44708423326134,1008,17.07000000000005
Jul-26-2019 00:08:30,,34.3369833,-119.59053829999999,211.59331374181303,15.636018229120168,6.68682505399568,11.060475161987041,1008,17.060000000000002
Jul-26-2019 00:08:45,,34.3366733,-119.58972829999999,217.49477903166053,15.04014212218411,7.4838012958963285,10.632829373650107,1008,17.08000000000004
Jul-26-2019 00:09:00,,34.3363583,-119.5889133,214.59561258829854,11.201324894807593,7.1922246220302375,10.302375809935205,1008,17.060000000000002
Jul-26-2019 00:09:15,,34.33604,-119.58811829999999,210.99170805692566,9.998113525032867,6.68682505399568,10.205183585313176,1008,16.980000000000018
Jul-26-2019 00:09:30,,34.335738299999996,-119.58731499999999,217.2942438033647,12.421724998436249,6.68682505399568,10.321814254859612,1008,16.980000000000018
Jul-26-2019 00:09:45,,34.3354133,-119.5865266,212.79079553363647,14.3354040341732,7.095032397408207,11.37149028077754,1008,17.05000000000001
Jul-26-2019 00:10:00,,34.3351116,-119.585715,210.99170805692566,16.655883104453032,7.1922246220302375,10.671706263498919,1008,17.010000000000048
Jul-26-2019 00:10:15,,34.3348016,-119.5849016,217.79271708512852,17.469483173538798,7.095032397408207,9.952483801295896,1008,17.05000000000001
Jul-26-2019 00:10:30,,34.3344916,-119.5840983,214.6930154134708,18.013793078913082,7.794816414686824,10.399568034557236,1008,17.160000000000025
Jul-26-2019 00:10:45,,34.334175,-119.5832933,218.1937875417201,19.38889178722706,6.9978401727861765,10.010799136069116,1008,17.130000000000052
Jul-26-2019 00:11:00,,34.3338533,-119.5825,215.49515632665393,17.171545120070775,7.289416846652268,10.613390928725703,1008,17.110000000000014
Jul-26-2019 00:11:15,,34.33354,-119.581695,217.69531425995626,22.895393493427694,7.3866090712742976,11.02159827213823,1008,17.180000000000007
Jul-26-2019 00:11:30,,34.333226599999996,-119.5808866,217.9932523134243,17.71012544749375,7.580993520518358,10.205183585313176,1008,17.210000000000036
Jul-26-2019 00:11:45,,34.332918299999996,-119.5800716,219.19073410524774,15.481319624434843,7.289416846652268,10.866090712742979,1008,17.170000000000016
Jul-26-2019 00:12:00,,34.3326,-119.5792666,222.69150623349705,17.062683138995915,7.3866090712742976,9.874730021598273,1008,17.130000000000052
Jul-26-2019 00:12:15,,34.332268299999996,-119.5784683,216.19416483671355,15.767798522000255,7.580993520518358,10.419006479481643,1008,17.140000000000043
Jul-26-2019 00:12:30,,34.3319633,-119.5776616,220.4913483001947,22.030227222780155,7.4838012958963285,10.399568034557236,1008,17.230000000000018
Jul-26-2019 00:12:45,,34.331665,-119.5768366,222.2961653548568,25.73726415727658,7.3866090712742976,10.263498920086393,1008,17.29000000000002
Jul-26-2019 00:13:00,,34.33137,-119.5760183,223.09257669008866,24.132982330910274,7.3866090712742976,10.185745140388768,1008,17.27000000000004
Jul-26-2019 00:13:15,,34.3310683,-119.57517829999999,216.19416483671355,23.83504427744225,7.794816414686824,10.263498920086393,1008,17.260000000000048
Jul-26-2019 00:13:30,,34.3307833,-119.574355,231.3947351415343,23.141765345333955,7.989200863930886,10.107991360691145,1008,17.24000000000001
Jul-26-2019 00:13:45,,34.3305083,-119.5735466,229.5956476648235,22.27659907468641,7.794816414686824,8.572354211663066,1008,17.260000000000048
Jul-26-2019 00:14:00,,34.3302566,-119.572735,226.79388404663376,23.70326398456216,7.892008639308855,9.174946004319654,1008,17.28000000000003
Jul-26-2019 00:14:15,,34.3299916,-119.5719233,224.5937261133314,21.016091925398598,7.794816414686824,9.855291576673865,1008,17.33000000000004
Jul-26-2019 00:14:30,,34.329715,-119.57110829999999,221.09295398508206,19.492024190350605,8.086393088552915,9.485961123110151,1008,17.310000000000002
Jul-26-2019 00:14:45,,34.3294616,-119.57028659999999,221.79196249514166,20.65512851446618,8.280777537796975,9.563714902807774,1008,17.28000000000003
Jul-26-2019 00:15:00,,34.3291633,-119.569465,223.89471760327183,17.074142294898532,7.989200863930886,8.669546436285097,1008,17.30000000000001
Jul-26-2019 00:15:15,,34.3288783,-119.56863999999999,225.99174313345063,18.42059311345597,7.697624190064795,9.194384449244062,1008,17.310000000000002
Jul-26-2019 00:15:30,,34.3286016,-119.567815,223.99212042844403,18.666964965362222,7.289416846652268,10.419006479481643,1008,17.350000000000023
Jul-26-2019 00:15:45,,34.3283383,-119.56698999999999,218.99592845490324,22.133359625903704,8.397408207343414,10.457883369330453,1008,17.380000000000052
Jul-26-2019 00:16:00,,34.328058299999995,-119.5661633,223.79158520014826,25.095551426730058,8.397408207343414,10.555075593952484,1008,17.370000000000005
Jul-26-2019 00:16:15,,34.327768299999995,-119.5653433,228.6961039264681,23.00998505245386,8.183585313174946,10.399568034557236,1008,17.33000000000004
Jul-26-2019 00:16:30,,34.3275016,-119.56451829999999,221.09295398508206,22.855286447768542,8.397408207343414,9.971922246220302,1008,17.33000000000004
Jul-26-2019 00:16:45,,34.327246599999995,-119.5637016,219.69493696496286,26.442002245287494,8.591792656587474,9.077753779697625,1008,17.32000000000005
Jul-26-2019 00:17:00,,34.326981599999996,-119.5628933,227.5960249598169,22.5516188163492,8.591792656587474,9.116630669546439,1008,17.340000000000032
Jul-26-2019 00:17:15,,34.3266716,-119.5620783,224.7942613416272,17.72731418134767,7.580993520518358,9.09719222462203,1008,17.360000000000014
Jul-26-2019 00:17:30,,34.326364999999996,-119.5612633,219.39126933354353,16.5642098572321,7.580993520518358,8.786177105831534,1008,17.380000000000052
Jul-26-2019 00:17:45,,34.32606,-119.5604583,227.5960249598169,21.262463777304852,7.580993520518358,9.855291576673865,1008,17.390000000000043
Jul-26-2019 00:18:00,,34.3257516,-119.55964999999999,228.79350675164036,22.38546105576126,7.1922246220302375,9.622030237580994,1008,17.380000000000052
Jul-26-2019 00:18:15,,34.325455,-119.55883659999999,228.49556869817232,22.448486413225655,7.3866090712742976,9.388768898488122,1008,17.29000000000002
Jul-26-2019 00:18:30,,34.3251583,-119.5580133,220.1934102467267,26.018013476890683,8.688984881209503,10.57451403887689,1008,17.29000000000002
Jul-26-2019 00:18:45,,34.324851599999995,-119.557205,224.7942613416272,25.44505568175986,8.280777537796975,9.330453563714903,1008,17.350000000000023
Jul-26-2019 00:19:00,,34.3245566,-119.5564016,229.09144480510835,26.585241694070202,8.280777537796975,10.360691144708424,1008,17.360000000000014
Jul-26-2019 00:19:15,,34.3242516,-119.5555966,222.4909710052013,17.641370512078048,7.989200863930886,9.311015118790497,1008,17.430000000000007
Jul-26-2019 00:19:30,,34.3239483,-119.5547883,228.89090957681262,23.27927521616535,7.892008639308855,9.311015118790497,1008,17.370000000000005
Jul-26-2019 00:19:45,,34.3236516,-119.5539766,222.89204146179284,27.341545983642884,8.397408207343414,10.749460043196546,1008,17.360000000000014
Jul-26-2019 00:20:00,,34.3233366,-119.55316499999999,225.79120790515483,28.407247482586214,8.786177105831534,10.866090712742979,1008,17.390000000000043
Jul-26-2019 00:20:15,,34.323041599999996,-119.55234329999999,223.79158520014826,22.448486413225655,8.688984881209503,9.54427645788337,1008,17.380000000000052
Jul-26-2019 00:20:30,,34.322745,-119.551535,222.59410340832486,22.752154044644993,8.786177105831534,9.466522678185745,1008,17.380000000000052
Jul-26-2019 00:20:45,,34.3224266,-119.55072159999999,228.09449824158074,23.57148369168207,7.580993520518358,9.34989200863931,1008,17.350000000000023
Jul-26-2019 00:21:00,,34.32212,-119.5499016,229.5956476648235,26.802965656219914,8.786177105831534,10.107991360691145,1008,17.380000000000052
Jul-26-2019 00:21:15,,34.321825,-119.5490933,223.69418237497604,24.299140091498217,8.786177105831534,9.991360691144708,1008,17.460000000000036
Jul-26-2019 00:21:30,,34.3215333,-119.5482816,224.5937261133314,25.473703571516403,9.485961123110151,10.593952483801296,1008,17.440000000000055
Jul-26-2019 00:21:45,,34.32123,-119.54746999999999,221.39089203855013,26.545134648411043,9.485961123110151,9.311015118790497,1008,17.400000000000034
Jul-26-2019 00:22:00,,34.3209233,-119.54664659999999,221.69455966996944,24.820531685067262,9.485961123110151,9.233261339092872,1008,17.380000000000052
Jul-26-2019 00:22:15,,34.32062,-119.54584159999999,228.191901066753,24.465297852086156,8.397408207343414,9.44708423326134,1008,17.390000000000043
Jul-26-2019 00:22:30,,34.3203166,-119.5450266,228.39243629504878,24.809072529164645,7.697624190064795,9.077753779697625,1008,17.350000000000023
Jul-26-2019 00:22:45,,34.3200266,-119.5442083,228.49556869817232,23.330841417727125,8.980561555075594,9.622030237580994,1008,17.390000000000043
Jul-26-2019 00:23:00,,34.3197416,-119.5434066,223.49364714668022,27.19257695690887,9.194384449244062,9.971922246220302,1008,17.410000000000025
Jul-26-2019 00:23:15,,34.319455,-119.54258159999999,221.79196249514166,25.576835974639952,9.894168466522679,10.477321814254859,1008,17.410000000000025
Jul-26-2019 00:23:30,,34.31916,-119.541765,219.89547219325866,27.97179955828679,9.58315334773218,10.12742980561555,1008,17.430000000000007
Jul-26-2019 00:23:45,,34.3188466,-119.5409416,221.69455966996944,29.40419404611385,9.680345572354213,11.838012958963283,1008,17.390000000000043
Jul-26-2019 00:24:00,,34.31856,-119.5401333,221.79196249514166,28.281196767657438,9.79697624190065,9.816414686825054,1008,17.360000000000014
Jul-26-2019 00:24:15,,34.31828,-119.5393216,222.69150623349705,26.659726207437206,9.680345572354213,11.468682505399569,1008,17.380000000000052
Jul-26-2019 00:24:30,,34.318,-119.53850329999999,221.39089203855013,24.619996456771474,9.485961123110151,9.563714902807774,1008,17.390000000000043
Jul-26-2019 00:24:45,,34.317711599999996,-119.53769659999999,220.8924187567863,25.49662188332163,9.388768898488122,10.146868250539956,1008,17.370000000000005
Jul-26-2019 00:25:00,,34.317425,-119.53687,225.4932698516868,27.30143893798373,9.894168466522679,10.030237580993521,1008,17.400000000000034
Jul-26-2019 00:25:15,,34.317145,-119.53604999999999,223.59104997185247,26.172712081576005,9.194384449244062,9.524838012958964,1008,17.410000000000025
Jul-26-2019 00:25:30,,34.3168583,-119.53523829999999,224.09525283156756,30.916802625259226,10.788336933045356,10.419006479481643,1008,17.410000000000025
Jul-26-2019 00:25:45,,34.316571599999996,-119.5344033,220.79501593161405,25.71434584547135,9.194384449244062,11.060475161987041,1008,17.390000000000043
Jul-26-2019 00:26:00,,34.3163116,-119.53358329999999,220.09600742155445,27.897315044919782,8.980561555075594,9.719222462203023,1008,17.410000000000025
Jul-26-2019 00:26:15,,34.31605,-119.5327566,222.2961653548568,27.381653029302043,8.786177105831534,9.680345572354213,1008,17.370000000000005
Jul-26-2019 00:26:30,,34.3157733,-119.53192329999999,225.89434030827837,29.47294898152955,8.688984881209503,10.205183585313176,1008,17.340000000000032
Jul-26-2019 00:26:45,,34.315503299999996,-119.5310933,226.49594599316572,26.086768412306384,9.09719222462203,9.369330453563714,1008,17.340000000000032
Jul-26-2019 00:27:00,,34.3152616,-119.5302566,222.9951738649164,22.94695969498947,9.09719222462203,9.019438444924406,1008,17.390000000000043
Jul-26-2019 00:27:15,,34.3149983,-119.52942499999999,227.0918221001018,27.966069980335483,10.088552915766739,8.86393088552916,1008,17.420000000000016
Jul-26-2019 00:27:30,,34.3147266,-119.52861159999999,224.7942613416272,29.558892650799173,9.485961123110151,9.991360691144708,1008,17.380000000000052
Jul-26-2019 00:27:45,,34.3144466,-119.52777499999999,221.89509489826523,30.017258886903832,10.593952483801296,10.12742980561555,1008,17.420000000000016
Jul-26-2019 00:28:00,,34.3141983,-119.5269283,219.29386650837128,26.086768412306384,9.291576673866091,11.293736501079914,1008,17.460000000000036
Jul-26-2019 00:28:15,,34.313939999999995,-119.526095,222.2961653548568,26.917557215246074,8.883369330453565,10.049676025917925,1008,17.430000000000007
Jul-26-2019 00:28:30,,34.3137116,-119.52525829999999,221.89509489826523,25.51381061717556,9.09719222462203,10.166306695464364,1008,17.410000000000025
Jul-26-2019 00:28:45,,34.3134766,-119.524405,223.99212042844403,26.178441659527316,8.591792656587474,10.477321814254859,1008,17.430000000000007
Jul-26-2019 00:29:00,,34.3132466,-119.52355999999999,225.89434030827837,23.80639638768571,7.580993520518358,8.70842332613391,1008,17.380000000000052
Jul-26-2019 00:29:15,,34.3130033,-119.52270499999999,229.3951124365277,23.422514664948054,7.697624190064795,8.591792656587474,1008,17.370000000000005
Jul-26-2019 00:29:30,,34.3127816,-119.5218616,227.2923573283976,23.720452718416084,8.397408207343414,8.84449244060475,1008,17.440000000000055
Jul-26-2019 00:29:45,,34.3125583,-119.5210183,227.39548973152114,21.65780465594512,7.989200863930886,8.514038876889849,1008,17.480000000000018
Jul-26-2019 00:30:00,,34.312329999999996,-119.5201733,232.5922169333577,21.25673419935354,7.989200863930886,8.028077753779696,1008,17.430000000000007
Jul-26-2019 00:30:15,,34.3121133,-119.5193316,232.49481410818544,25.559647240786024,7.794816414686824,8.26133909287257,1008,17.370000000000005
Jul-26-2019 00:30:30,,34.3118966,-119.5184716,223.99212042844403,24.912204932288198,8.883369330453565,9.79697624190065,1008,17.470000000000027
Jul-26-2019 00:30:45,,34.311653299999996,-119.517645,223.89471760327183,26.87172059163561,8.786177105831534,8.727861771058317,1008,17.560000000000002
Jul-26-2019 00:31:00,,34.3114116,-119.51680999999999,219.59180456183933,25.273168343220615,9.09719222462203,10.457883369330453,1008,17.54000000000002
Jul-26-2019 00:31:15,,34.311175,-119.5159633,224.49059371020786,25.204413407804914,7.4838012958963285,10.76889848812095,1008,17.450000000000045
Jul-26-2019 00:31:30,,34.310939999999995,-119.5151233,223.79158520014826,23.869421745150095,7.892008639308855,9.660907127429804,1008,17.480000000000018
Jul-26-2019 00:31:45,,34.310725,-119.5142783,226.99441927492956,24.029849927786728,8.086393088552915,8.377969762419008,1008,17.49000000000001
Jul-26-2019 00:32:00,,34.310469999999995,-119.51342,230.29465617488307,19.77277350996471,7.989200863930886,8.105831533477323,1008,17.410000000000025
Jul-26-2019 00:32:15,,34.31024,-119.51257659999999,225.69380507998258,27.5592699457926,8.183585313174946,10.166306695464364,1008,17.410000000000025
Jul-26-2019 00:32:30,,34.3100083,-119.51173159999999,231.8932084232981,26.64826705153459,8.086393088552915,8.80561555075594,1008,17.420000000000016
Jul-26-2019 00:32:45,,34.3097783,-119.51087659999999,222.39356818002906,26.9347459491,9.680345572354213,9.952483801295896,1008,17.450000000000045
Jul-26-2019 00:33:00,,34.3095433,-119.5100183,221.79196249514166,23.130306189431334,8.980561555075594,8.74730021598272,1008,17.460000000000036
Jul-26-2019 00:33:15,,34.3093266,-119.5091983,228.191901066753,31.804887207712,9.291576673866091,8.727861771058317,1008,17.410000000000025
Jul-26-2019 00:33:30,,34.3091066,-119.5083616,230.39205900005535,22.33389485419949,8.786177105831534,8.280777537796975,1008,17.380000000000052
Jul-26-2019 00:33:45,,34.3088666,-119.50752159999999,220.1934102467267,29.82818281451066,10.885529157667388,9.971922246220302,1008,17.420000000000016
Jul-26-2019 00:34:00,,34.308634999999995,-119.506675,223.396244321508,30.18341664749177,10.496760259179267,9.369330453563714,1008,17.390000000000043
Jul-26-2019 00:34:15,,34.3083933,-119.50583329999999,224.994796569923,30.4813547009598,9.894168466522679,9.155507559395248,1008,17.380000000000052
Jul-26-2019 00:34:30,,34.308151599999995,-119.50497999999999,223.49364714668022,26.012283898939373,9.991360691144708,9.54427645788337,1008,17.450000000000045
Jul-26-2019 00:34:45,,34.3079116,-119.5041366,225.19533179821875,26.06385010050115,8.494600431965443,9.485961123110151,1008,17.450000000000045
Jul-26-2019 00:35:00,,34.3076783,-119.50328499999999,225.4932698516868,26.957664260905236,9.291576673866091,8.86393088552916,1008,17.440000000000055
Jul-26-2019 00:35:15,,34.3074516,-119.5024383,224.49059371020786,29.08333768084059,10.185745140388768,9.408207343412528,1008,17.480000000000018
Jul-26-2019 00:35:30,,34.3072266,-119.50156829999999,228.49556869817232,30.699078663109514,10.496760259179267,9.194384449244062,1008,17.400000000000034
Jul-26-2019 00:35:45,,34.306993299999995,-119.50072829999999,228.59297152334454,27.668131926867453,9.58315334773218,9.330453563714903,1008,17.400000000000034
Jul-26-2019 00:36:00,,34.3067616,-119.4998883,218.79539322660747,26.929016371148695,10.088552915766739,9.79697624190065,1008,17.450000000000045
Jul-26-2019 00:36:15,,34.3065266,-119.499045,223.1957090932122,27.988988292140718,9.291576673866091,10.010799136069116,1008,17.450000000000045
Jul-26-2019 00:36:30,,34.306295,-119.4981883,222.9951738649164,27.954610824432866,8.883369330453565,9.60259179265659,1008,17.480000000000018
Jul-26-2019 00:36:45,,34.3060483,-119.4973416,223.89471760327183,31.558515355805746,10.380129589632828,9.699784017278619,1008,17.440000000000055
Jul-26-2019 00:37:00,,34.30581,-119.4964966,224.994796569923,32.664323900408235,9.894168466522679,8.86393088552916,1008,17.440000000000055
Jul-26-2019 00:37:15,,34.3055733,-119.49565159999999,226.0948755365742,31.357980127509954,11.196544276457884,9.835853131749461,1008,17.49000000000001
Jul-26-2019 00:37:30,,34.305335,-119.4948,228.191901066753,32.446599938258515,10.593952483801296,9.194384449244062,1008,17.450000000000045
Jul-26-2019 00:37:45,,34.3051016,-119.49394,224.39319088503564,30.114661712076074,9.79697624190065,8.55291576673866,1008,17.440000000000055
Jul-26-2019 00:38:00,,34.304865,-119.4931033,229.49251526169994,28.057743227556415,9.09719222462203,8.727861771058317,1008,17.450000000000045
Jul-26-2019 00:38:15,,34.304616599999996,-119.4922533,228.6961039264681,26.768588188512062,9.485961123110151,9,1008,17.460000000000036
Jul-26-2019 00:38:30,,34.3043766,-119.49140829999999,225.59067267685904,28.453084106196684,8.980561555075594,9.485961123110151,1008,17.480000000000018
Jul-26-2019 00:38:45,,34.3041383,-119.49056999999999,227.39548973152114,32.681512634262155,9.79697624190065,7.853131749460044,1008,17.430000000000007
Jul-26-2019 00:39:00,,34.303895,-119.48971329999999,229.79045331516798,34.148284589797065,11.079913606911447,9.524838012958964,1008,17.480000000000018
Jul-26-2019 00:39:15,,34.3036483,-119.48884659999999,229.49251526169994,29.879749016072438,10.982721382289418,9.874730021598273,1008,17.470000000000027
Jul-26-2019 00:39:30,,34.303425,-119.48800329999999,219.29386650837128,28.65934891244378,11.079913606911447,10.885529157667388,1008,17.53000000000003
Jul-26-2019 00:39:45,,34.303194999999995,-119.4871666,222.69150623349705,32.458059094161136,10.982721382289418,10.146868250539956,1008,17.430000000000007
Jul-26-2019 00:40:00,,34.3029716,-119.48633,230.39205900005535,34.06234092052744,10.982721382289418,8.766738660907127,1008,17.310000000000002